Voltar ao catálogo

ONEWEB-0136

AtivoComunicaçõesPO
NORAD 47282·PAYLOAD·🇬🇧 United Kingdom

Lançado Dec 18, 2020 de Vostochny Cosmodrome

Loading…

Próximas Passagens (próximas 24 horas)

TLE

AtualizadoSource: CelesTrak SupGP

Época: Sep 14, 2026, 13:33 UTC

1 47282C 20100AA  26257.56472222  .00001973  00000+0  54915-2 0  2570
2 47282  87.8983 332.9088 0001731  93.2040  16.4647 13.12437331    18

Acompanhe ONEWEB-0136 em tempo real com AllMySat

Download on the App Store